NOAA 16 DEB, 41086

Orbit data source: Space-Track

NOAA 16 DEB, 41086 is space debris in SSO originally from a launch on Thu, 21 Sep 2000 UTC launched from the Air Force Western Test Range (AFWTR). Debris objects in space refer to the collection of defunct objects orbiting the Earth. Examples of debris include non-operational satellites, rocket bodies, and fragments generated from explosions, collisions, or faulty payload assembly.

Loading next visibility...
Identifier
41086, 2000-055AV
Orbit
SSO
Country
Flag of USUS
Related business
Manufacturer
Unknown
Mission
Spacecraft
Bus & Motor
Unknown
Mass
Unknown
Launch date (UTC)
2000-09-21 (25 years ago)
Launch vehicle
Unknown
Launch site
Air Force Western Test Range (AFWTR)
Object type
Payload
Rocket body
Debris
Shape & HBR
Unknown
Radar Cross Section
Small (<0.1 m²)

Expand to show TLE details & history
Last TLE update: 14 hours ago

TLE from 14 hours ago
0 NOAA 16 DEB
1 41086U 00055AV  25258.23091266  .00029179  00000-0  60943-2 0  9992
2 41086  98.8100  49.1365 0030733 104.8232 255.6374 14.59489644511475
Epoch: 2025-09-15T05:32Z
TLE epoch observation values (Epoch: 2025-09-15T05:32:30.853Z)
Latitude
-0.00002°
Longitude
-28.43059°
Altitude
703.243 km
Speed
7.501 km/s
True Right ascension
03h 16m 32s
True Declination
0° 00' 00"
Sunlit
Object was in full shadow at epoch
Visualization orbit readout
Latitude
Unknown
Longitude
Unknown
Altitude
Unknown
Speed
Unknown
Apparent Right ascension
Unknown
Apparent Declination
Unknown
Sunlit
N/A
Visualization observer readout
Local Sidereal Time
11:48:05
Azimuth
Unknown
Elevation
Unknown
Doppler factor
Unknown
Orbital elements
Apogee altitude
713.662 km
Perigee altitude
670.205 km
Semi-major axis
7,070.07 km
Eccentricity
0.00307
Inclination
98.81°
RAAN
49.1365°
Arg. of periapsis
104.8232°
True anomaly
255.29656°
Mean anomaly
255.6374°
Eccentric anomaly
255.46695°
Mean motion
3.65096 °/min
Orbital period
98.6 mins
BSTAR
0.0060943
Loading maneuver chart data...
Computing Atmospheric mass density...
Loading historical data...
Loading historical data...
Loading historical data...
Loading historical data...
Loading historical data...
Loading historical data...
Loading historical data...

Documentation

Showing up to 5 results
|